This is the latest recevied weather packets stored in our database for station/object KD4MBW. If no packets are shown the sender has not sent any weather packets the latest 10 day(s).
| Time | Temp. | Humidity | Pressure | Rain* | Wind** | Luminosity | Snow |
|---|---|---|---|---|---|---|---|
| 1777768311 | 19.44° C | 71% | 1014.3 hPa | 0 mm | - | 1 W/m² | - |
| 1777768008 | 19.44° C | 70% | 1014.5 hPa | 0 mm | - | 2 W/m² | - |
| 1777767704 | 20° C | 70% | 1014 hPa | 0 mm | - | 3 W/m² | - |
| 1777767400 | 20° C | 68% | 1013.9 hPa | 0 mm | - | 6 W/m² | - |
| 1777767098 | 20.56° C | 66% | 1013.6 hPa | 0 mm | - | 9 W/m² | - |
| 1777766795 | 20.56° C | 66% | 1013.8 hPa | 0 mm | - | 13 W/m² | - |
| 1777766492 | 20.56° C | 65% | 1013.5 hPa | 0 mm | - | 17 W/m² | - |
| 1777766189 | 21.11° C | 64% | 1013.3 hPa | 0 mm | - | 21 W/m² | - |
| 1777765887 | 21.11° C | 65% | 1013.4 hPa | 0 mm | - | 25 W/m² | - |
| 1777765582 | 21.11° C | 64% | 1013.2 hPa | 0 mm | - | 29 W/m² | - |
| 1777765280 | 21.11° C | 64% | 1013 hPa | 0 mm | - | 34 W/m² | - |
| 1777764976 | 21.67° C | 63% | 1013 hPa | 0 mm | - | 40 W/m² | - |
| 1777764673 | 21.67° C | 64% | 1013 hPa | 0 mm | - | 47 W/m² | - |
| 1777764369 | 21.67° C | 64% | 1012.6 hPa | 0 mm | - | 55 W/m² | - |
| 1777764067 | 21.67° C | 65% | 1012.7 hPa | 0 mm | - | 63 W/m² | - |
| 1777763763 | 21.67° C | 65% | 1012.6 hPa | 0 mm | - | 73 W/m² | - |
| 1777763461 | 21.67° C | 65% | 1012.6 hPa | 0 mm | - | 95 W/m² | - |
| 1777763159 | 21.67° C | 65% | 1012.9 hPa | 0 mm | - | 56 W/m² | - |
| 1777762857 | 21.67° C | 64% | 1012.7 hPa | 0 mm | - | 88 W/m² | - |
| 1777762552 | 21.67° C | 63% | 1012.8 hPa | 0 mm | - | 113 W/m² | - |
| 1777762250 | 21.67° C | 64% | 1012.6 hPa | 0 mm | - | 130 W/m² | - |
| 1777761946 | 21.67° C | 66% | 1012.8 hPa | 0 mm | - | 59 W/m² | - |
| 1777761643 | 22.22° C | 63% | 1012.7 hPa | 0 mm | - | 82 W/m² | - |
| 1777761341 | 22.22° C | 63% | 1012.7 hPa | 0 mm | - | 208 W/m² | - |
| 1777761039 | 22.22° C | 63% | 1012.6 hPa | 0 mm | - | 233 W/m² | - |
* Rain latest hour (hover to see other rain measurements)
** Current wind speed in m/s (hover to see current wind gust speed)